Hourly Data Report for August 22, 2009

All times are specified in Local Standard Time (LST). Add 1 hour to adjust for Daylight Saving Time where and when it is observed.

EMERSON AUT
MANITOBA

49°00'00.000" N
97°14'15.000" W
242.00 m
5020882
71560
WEX

Download Data

Hourly Data (August 2009)
Hourly Data Report for August 22, 2009
Temp Definition
°C
Dew Point Temp Definition
°C
Rel Hum Definition
%
Wind Dir Definition
10's deg

Wind Spd Definition
km/h
Visibility Definition
km
Stn Press Definition
kPa
Hmdx Definition


Wind Chill Definition


Weather Definition


TIME
00:00 9.2 8.9 98 28 6   98.98     LegendNANA
01:00 9.2 9.0 99 30 4   99.01     LegendNANA
02:00 8.3 8.0 98 2 2   98.99     LegendNANA
03:00 7.2 7.0 99 32 2   98.98     LegendNANA
04:00 6.5 6.3 99 27 4   99.01     LegendNANA
05:00 6.5 6.4 99 25 4   99.00     LegendNANA
06:00 7.9 7.8 99 13 2   98.99     LegendNANA
07:00 9.5 9.4 99 13 6   98.99     LegendNANA
08:00 11.4 10.8 96 14 7   99.01     LegendNANA
09:00 15.0 12.9 87 16 9   98.99     LegendNANA
10:00 17.3 12.0 71 17 19   98.90     LegendNANA
11:00 18.4 11.7 65 19 20   98.88     LegendNANA
12:00 18.8 11.9 64 18 20   98.84     LegendNANA
13:00 19.4 12.8 66 18 17   98.81     LegendNANA
14:00 20.5 13.4 64 18 20   98.74     LegendNANA
15:00 20.9 13.4 62 17 24   98.63     LegendNANA
16:00 19.9 13.6 67 16 20   98.54     LegendNANA
17:00 19.9 14.0 69 16 20   98.49     LegendNANA
18:00 19.9 14.2 70 16 17   98.47     LegendNANA
19:00 18.5 14.3 77 15 17   98.39     LegendNANA
20:00 17.6 14.2 80 15 15   98.44     LegendNANA
21:00 17.0 14.0 82 15 17   98.41     LegendNANA
22:00 16.9 14.0 83 15 17   98.39     LegendNANA
23:00 18.0 14.3 79 16 24   98.34     LegendNANA

Notes on Data Quality.

Legend

  • E = Estimated
  • M = Missing
  • NA = Not Available
  • ‡ = Partner data that is not subject to review by the National Climate Archives
Date modified: